565  
ASUS45 KSLC 222210  
RWRUT  
 
UTAH REGIONAL WEATHER ROUNDUP  
NATIONAL WEATHER SERVICE SALT LAKE CITY UT  
400 PM MDT TUE AUG 22 2017  
 
UTZ001>011-023>025-222300-  
 
NORTHERN UTAH  
 
CITY SKY/WX TMP DP RH WIND PRES REMARKS
 
BRIGHAM CITY SUNNY 89 33 13 NW5 30.15F  
DUGWAY PTSUNNY 89 40 18 W10G16 30.14F  
HILL AFB PTSUNNY 87 41 19 W6 30.19F  
LOGAN SUNNY 90 42 18 NW6 30.15F  
OGDEN MOSUNNY 89 41 18 W5 30.15F  
SALT LAKE CITY PTSUNNY 89 44 20 N9 30.13F  
TOOELE VALLEY CLOUDY 81 54 39 SE9 30.15F  
WENDOVER PTSUNNY 87 43 21 E8 30.14F  
HEBER CITY RAIN 70 50 49 E10G20 30.25R  
WEST JORDAN PTSUNNY 84 55 36 NW8 30.17F  
 

 
 
UTZ011>015-024>027-222300-  
 
CENTRAL/NORTHEAST UTAH  
 
CITY SKY/WX TMP DP RH WIND PRES REMARKS
 
PROVO AIRPORT PTSUNNY 90 45 20 VRB7 30.16F  
MOAB/CANYONLAN MOSUNNY 90 44 20 VRB5 30.13F  
DELTA MOSUNNY 82 41 23 SE6 30.20F  
PRICE MOSUNNY 87 37 17 S9G18 30.24F  
RICHFIELD SUNNY 81 46 30 CALM 30.24  
ROOSEVELT CLOUDY 91 34 13 CALM 30.20F  
VERNAL CLOUDY 91 35 13 VRB6 30.18F  
 

 
 
UTZ013>016-019>022-027-222300-  
 
SOUTHERN UTAH  
 
CITY SKY/WX TMP DP RH WIND PRES REMARKS
 
BRYCE CANYON PTSUNNY 73 47 39 NW6 30.41F  
CEDAR CITY MOSUNNY 84 43 23 MISG 30.23F  
MILFORD MOSUNNY 88 43 20 S9 30.18F  
ST GEORGE MOCLDY 95 48 20 SW10G16 30.04F HX 91  
HANKSVILLE MOSUNNY 88 39 18 SE7 30.17F  
KANAB MOSUNNY 88 39 18 SW10 30.22  
BLANDING MOSUNNY 83 42 23 SW8 30.34F  
 

 
 
REGIONAL REPORTS COLORADO/ARIZONA  
 
CITY SKY/WX TMP DP RH WIND PRES REMARKS
 
CRAIG, CO CLOUDY 78 35 21 S23G36 30.27S  
GRAND JUNCTION MOSUNNY 90 43 19 NW8G18 30.16F  
RIFLE, CO MOSUNNY 86 37 17 NW14G25 30.23F  
MONTROSE, CO CLOUDY 73 52 47 S12 30.31F  
CORTEZ, CO SUNNY 85 46 25 SW10 30.25F  
COLORADO CITY N/A 90 43 19 S10 30.22F  
PAGE, AZ SUNNY 91 47 21 VRB7 30.15F  
GRAND CANYON MOSUNNY 80 44 27 S8 30.34F  
KINGMAN, AZ PTSUNNY 95 46 18 N8 30.09F HX 91  
FLAGSTAFF, AZ MOSUNNY 76 40 27 SW8 30.37F  
 

 
 
REGIONAL REPORTS NEVADA/IDAHO/WYOMING  
 
CITY SKY/WX TMP DP RH WIND PRES REMARKS
 
LAS VEGAS, NV MOSUNNY 100 44 14 NW9 29.99F HX 96  
ELY, NY PTSUNNY 77 43 29 MISG 30.29F  
ELKO, NV MOSUNNY 86 39 19 S8 30.19F  
POCATELLO, ID MOSUNNY 91 31 11 W14 30.15F  
BURLEY, ID SUNNY 89 37 16 N5 30.10F  
FORT BRIDGER, N/A 81 31 16 S15G22 30.37F  
EVANSTON, WY CLOUDY 76 37 24 S21 30.35F  
ROCK SPRINGS, SUNNY 84 24 11 W8 30.30F  
KEMMERER, WY N/A 82 27 13 SW8 30.35F  
 

 
 
 
CLICK HERE TO GO TO PREVIOUS BULLETINS.

The Nexlab UT Page Main Text Page